GW0306 Weather Reports


time (UTC)temp
C
wind
direction
speed
KPH
gust
KPH
rain 1hr
cm
rain 24hr
cm
rain mn
cm
humidity
%
barometer
mb
20260506001738 20 23 1.6 6.4 0.00 0.00 0.00 86 1013.0
20260506001228 21 68 3.2 6.4 0.00 0.00 0.00 86 1013.0
20260506000718 21 45 1.6 6.4 0.00 0.00 0.00 86 1012.8
20260506000208 21 158 1.6 6.4 0.00 0.00 0.00 85 1012.6
20260505235658 21 68 1.6 9.7 0.00 0.00 0.00 85 1012.7
20260505235148 21 68 3.2 9.7 0.00 0.00 0.00 85 1012.9
20260505234638 21 90 1.6 9.7 0.00 0.00 0.00 85 1012.7
20260505234127 21 90 1.6 9.7 0.00 0.00 0.00 85 1012.9
20260505233617 21 23 4.8 9.7 0.00 0.00 0.00 85 1012.7
20260505233107 21 135 4.8 9.7 0.00 0.00 0.00 85 1012.7
20260505232557 21 90 3.2 6.4 0.00 0.00 0.00 86 1012.8
20260505232047 21 68 3.2 6.4 0.00 0.00 0.00 86 1012.6
20260505231026 21 135 3.2 6.4 0.00 0.00 0.00 86 1012.6
20260505230517 21 90 1.6 6.4 0.00 0.00 0.00 85 1012.5
20260505230007 21 68 1.6 6.4 0.00 0.00 0.00 85 1012.6
20260505225457 21 135 3.2 6.4 0.00 0.00 0.00 85 1012.7
20260505224947 21 158 3.2 6.4 0.00 0.00 0.00 84 1012.5
20260505224436 21 90 4.8 6.4 0.00 0.00 0.00 84 1012.5
20260505223926 21 113 1.6 6.4 0.00 0.00 0.00 84 1012.6
20260505223416 21 135 3.2 6.4 0.00 0.00 0.00 85 1012.7
20260505222905 21 113 1.6 3.2 0.00 0.00 0.00 84 1013.0
20260505222356 21 270 1.6 6.4 0.00 0.00 0.00 84 1012.9
20260505221845 21 135 0.0 6.4 0.00 0.00 0.00 84 1012.6
20260505221335 21 68 3.2 6.4 0.00 0.00 0.00 84 1012.6
20260505220825 21 113 1.6 6.4 0.00 0.00 0.00 84 1012.4
20260505220315 21 180 0.0 6.4 0.00 0.00 0.00 84 1012.4
20260505215805 21 135 1.6 6.4 0.00 0.00 0.00 84 1012.3
20260505215255 22 68 3.2 3.2 0.00 0.00 0.00 84 1012.5
20260505214745 22 113 1.6 3.2 0.00 0.00 0.00 84 1012.3
20260505214235 22 113 0.0 3.2 0.00 0.00 0.00 84 1012.2
20260505213724 22 135 3.2 6.4 0.00 0.00 0.00 84 1012.3
20260505213214 22 113 3.2 6.4 0.00 0.00 0.00 83 1012.3
20260505212155 22 113 0.0 6.4 0.00 0.00 0.00 83 1012.1
20260505211135 22 135 1.6 3.2 0.00 0.00 0.00 82 1012.0
20260505210624 22 158 1.6 6.4 0.00 0.00 0.00 82 1012.2
20260505205604 22 135 1.6 6.4 0.00 0.00 0.00 82 1012.0
20260505205053 22 135 1.6 6.4 0.00 0.00 0.00 82 1012.1
20260505204034 22 135 3.2 6.4 0.00 0.00 0.00 82 1012.2
20260505203524 22 90 4.8 6.4 0.00 0.00 0.00 81 1012.0
20260505203014 22 135 0.0 6.4 0.00 0.00 0.00 81 1012.0
20260505202503 22 135 0.0 9.7 0.00 0.00 0.00 81 1012.0
20260505201953 22 68 4.8 9.7 0.00 0.00 0.00 80 1011.7
20260505201443 22 180 3.2 9.7 0.00 0.00 0.00 80 1012.0
20260505200933 23 158 3.2 6.4 0.00 0.00 0.00 80 1011.8
20260505200422 23 113 3.2 11.3 0.00 0.00 0.00 81 1011.8
20260505195912 23 158 4.8 11.3 0.00 0.00 0.00 80 1012.0
20260505195402 23 113 3.2 6.4 0.00 0.00 0.00 81 1012.0
20260505194852 23 68 1.6 6.4 0.00 0.00 0.00 81 1012.2
20260505194342 23 113 3.2 6.4 0.00 0.00 0.00 80 1011.9
20260505193833 22 90 3.2 6.4 0.00 0.00 0.00 81 1012.4
20260505193322 22 23 1.6 6.4 0.00 0.00 0.00 80 1012.3
20260505192812 23 113 4.8 6.4 0.00 0.00 0.00 80 1012.1
20260505192305 23 113 3.2 6.4 0.00 0.00 0.00 79 1012.4
20260505191752 23 180 3.2 9.7 0.00 0.00 0.00 79 1012.4
20260505191243 23 45 3.2 9.7 0.00 0.00 0.00 79 1012.1
20260505190732 23 113 1.6 9.7 0.00 0.00 0.00 78 1012.2
20260505190222 23 135 4.8 9.7 0.00 0.00 0.00 79 1011.9
20260505185711 23 158 1.6 9.7 0.00 0.00 0.00 78 1011.8
20260505185201 23 113 3.2 9.7 0.00 0.00 0.00 78 1012.0
20260505184651 23 158 3.2 6.4 0.00 0.00 0.00 77 1012.0
20260505184141 23 45 3.2 6.4 0.00 0.00 0.00 78 1012.0
20260505183630 23 68 3.2 9.7 0.00 0.00 0.00 78 1012.0
20260505182610 23 113 3.2 6.4 0.00 0.00 0.00 77 1012.5
20260505182100 24 68 1.6 6.4 0.00 0.00 0.00 77 1012.3
20260505181550 23 68 1.6 6.4 0.00 0.00 0.00 77 1012.1
20260505180530 23 113 3.2 6.4 0.00 0.00 0.00 77 1012.4
20260505180020 24 45 1.6 6.4 0.00 0.00 0.00 75 1012.4
20260505175510 24 113 1.6 6.4 0.00 0.00 0.00 76 1012.4
20260505175000 24 90 3.2 6.4 0.00 0.00 0.00 76 1012.5
20260505174450 23 113 0.0 6.4 0.00 0.00 0.00 77 1012.5
20260505173940 23 90 0.0 6.4 0.00 0.00 0.00 77 1012.6
20260505173430 23 45 1.6 6.4 0.00 0.00 0.00 77 1012.8
20260505172919 23 90 1.6 6.4 0.00 0.00 0.00 76 1012.9
20260505172409 23 90 1.6 6.4 0.00 0.00 0.00 77 1012.6
20260505171859 23 0 3.2 3.2 0.00 0.00 0.00 78 1012.9
20260505171349 23 68 3.2 6.4 0.00 0.00 0.00 77 1013.0
20260505170329 23 315 3.2 6.4 0.00 0.00 0.00 77 1013.2
20260505165818 23 68 1.6 6.4 0.00 0.00 0.00 76 1013.1
20260505165308 24 0 3.2 6.4 0.00 0.00 0.00 75 1013.0
20260505164758 24 225 1.6 6.4 0.00 0.00 0.00 75 1013.0
20260505164248 23 23 3.2 6.4 0.00 0.00 0.00 75 1012.9
20260505163738 24 338 1.6 6.4 0.00 0.00 0.00 75 1013.2
20260505163228 25 23 3.2 6.4 0.00 0.00 0.00 75 1013.1
20260505162718 23 338 3.2 9.7 0.00 0.00 0.00 78 1013.4
20260505162207 23 0 4.8 9.7 0.00 0.00 0.00 77 1013.2
20260505161658 24 68 3.2 9.7 0.00 0.00 0.00 76 1013.2
20260505161148 23 23 3.2 9.7 0.00 0.00 0.00 78 1013.0
20260505160638 23 45 4.8 11.3 0.00 0.00 0.00 77 1013.2
20260505160127 23 338 3.2 12.9 0.00 0.00 0.00 77 1013.3
20260505153035 23 23 3.2 9.7 0.00 0.00 0.00 76 1013.3
20260505152516 23 23 3.2 11.3 0.00 0.00 0.00 76 1013.5
20260505152007 23 45 3.2 11.3 0.00 0.00 0.00 77 1013.5
20260505151457 23 23 6.4 9.7 0.00 0.00 0.00 77 1013.5
20260505150436 23 90 1.6 6.4 0.00 0.00 0.00 76 1013.6
20260505140235 17 45 3.2 3.2 0.00 0.00 0.00 87 1014.2
20260505125013 15 0 0.0 3.2 0.00 0.00 0.00 87 1014.0
20260505124502 15 23 1.6 3.2 0.00 0.00 0.00 88 1014.1
20260505123953 15 113 0.0 3.2 0.00 0.00 0.00 88 1014.0
20260505123443 15 90 0.0 3.2 0.00 0.00 0.00 88 1014.1
20260505122933 15 113 1.6 3.2 0.00 0.00 0.00 88 1013.7
20260505122423 15 113 0.0 3.2 0.00 0.00 0.00 88 1013.9
20260505121913 14 68 1.6 3.2 0.00 0.00 0.00 88 1013.7
20260505121402 14 23 1.6 3.2 0.00 0.00 0.00 88 1013.8
20260505120852 14 180 0.0 12.9 0.00 0.00 0.00 88 1013.4
20260505120342 14 158 1.6 12.9 0.00 0.00 0.00 88 1013.5
20260505115832 14 0 3.2 6.4 0.00 0.00 0.00 88 1013.5
20260505114813 13 180 0.0 3.2 0.00 0.00 0.00 89 1013.3
20260505114302 13 135 1.6 3.2 0.00 0.00 0.00 89 1013.0
20260505113752 13 113 1.6 3.2 0.00 0.00 0.00 89 1013.3
20260505113242 13 113 0.0 3.2 0.00 0.00 0.00 89 1013.2
20260505112731 13 113 0.0 3.2 0.00 0.00 0.00 89 1013.2
20260505112222 13 68 0.0 3.2 0.00 0.00 0.00 89 1013.3
20260505111201 13 113 0.0 6.4 0.00 0.00 0.00 89 1013.1
20260505110141 13 45 1.6 3.2 0.00 0.00 0.00 89 1013.2
20260505100959 13 68 0.0 0.0 0.00 0.00 0.00 89 1012.9
20260505100449 13 68 0.0 0.0 0.00 0.00 0.00 89 1012.5
20260505095939 13 68 0.0 0.0 0.00 0.00 0.00 89 1012.6
20260505095429 12 68 0.0 0.0 0.00 0.00 0.00 89 1012.6
20260505094919 12 68 0.0 0.0 0.00 0.00 0.00 89 1012.8
20260505094409 12 68 0.0 0.0 0.00 0.00 0.00 89 1012.6
20260505093859 12 68 0.0 0.0 0.00 0.00 0.00 89 1012.3
20260505092839 12 45 0.0 0.0 0.00 0.00 0.00 89 1012.5
20260505092329 12 90 0.0 0.0 0.00 0.00 0.00 89 1012.3
20260505091818 12 68 0.0 0.0 0.00 0.00 0.00 89 1012.2
20260505090758 12 68 0.0 0.0 0.00 0.00 0.00 90 1012.3
20260505090248 12 68 0.0 0.0 0.00 0.00 0.00 90 1012.2
20260505085738 12 90 0.0 0.0 0.00 0.00 0.00 90 1012.2
20260505085228 12 113 0.0 0.0 0.00 0.00 0.00 90 1012.2
20260505084718 12 113 0.0 0.0 0.00 0.00 0.00 90 1012.1
20260505084208 12 90 0.0 0.0 0.00 0.00 0.00 90 1012.0
20260505083658 12 90 0.0 0.0 0.00 0.00 0.00 90 1012.0
20260505083148 12 90 0.0 0.0 0.00 0.00 0.00 90 1012.1
20260505082638 11 90 0.0 0.0 0.00 0.00 0.00 90 1012.2
20260505082127 11 68 0.0 0.0 0.00 0.00 0.00 90 1012.1
20260505081617 11 68 0.0 0.0 0.00 0.00 0.00 90 1012.4
20260505081107 11 68 0.0 0.0 0.00 0.00 0.00 90 1012.3
20260505080555 11 68 0.0 0.0 0.00 0.00 0.00 90 1012.4
20260505075538 11 90 0.0 0.0 0.00 0.00 0.00 90 1012.2
20260505075028 11 90 0.0 0.0 0.00 0.00 0.00 90 1012.2
20260505074517 11 68 0.0 0.0 0.00 0.00 0.00 90 1012.1
20260505074007 11 68 0.0 0.0 0.00 0.00 0.00 90 1011.9
20260505072947 11 68 0.0 0.0 0.00 0.00 0.00 90 1011.7
20260505072437 11 68 0.0 0.0 0.00 0.00 0.00 90 1012.0
20260505071928 11 68 0.0 0.0 0.00 0.00 0.00 90 1011.7
20260505071417 11 68 0.0 0.0 0.00 0.00 0.00 90 1011.7
20260505070907 11 68 0.0 0.0 0.00 0.00 0.00 90 1011.5
20260505070356 11 68 0.0 0.0 0.00 0.00 0.00 90 1011.6
20260505065846 11 68 0.0 0.0 0.00 0.00 0.00 90 1011.7
20260505065336 11 68 0.0 0.0 0.00 0.00 0.00 90 1011.5
20260505064827 11 68 0.0 0.0 0.00 0.00 0.00 90 1011.7
20260505063806 11 90 0.0 0.0 0.00 0.00 0.00 90 1011.6
20260505063256 11 90 0.0 0.0 0.00 0.00 0.00 90 1011.9
20260505062222 11 90 0.0 0.0 0.00 0.00 0.00 90 1011.7
20260505061712 11 90 0.0 0.0 0.00 0.00 0.00 90 1011.9
20260505061201 11 90 0.0 0.0 0.00 0.00 0.00 90 1011.9
20260505060651 11 90 0.0 0.0 0.00 0.00 0.00 90 1012.0
20260505060141 11 90 0.0 0.0 0.00 0.00 0.00 90 1011.8
20260505055631 11 90 0.0 0.0 0.00 0.00 0.00 90 1011.9
20260505055121 11 90 0.0 0.0 0.00 0.00 0.00 90 1012.1
20260505054611 11 90 0.0 0.0 0.00 0.00 0.00 90 1012.1
20260505054100 11 90 0.0 0.0 0.00 0.00 0.00 90 1012.1
20260505053551 11 90 0.0 0.0 0.00 0.00 0.00 90 1012.1
20260505053040 11 90 0.0 0.0 0.00 0.00 0.00 90 1012.1
20260505052530 11 90 0.0 0.0 0.00 0.00 0.00 90 1012.2
20260505052020 11 90 0.0 0.0 0.00 0.00 0.00 89 1012.5
20260505051520 11 90 0.0 0.0 0.00 0.00 0.00 89 1012.3
20260505051000 11 90 0.0 0.0 0.00 0.00 0.00 89 1012.5
20260505050450 11 90 0.0 0.0 0.00 0.00 0.00 89 1012.3
20260505041309 11 68 0.0 0.0 0.00 0.00 0.00 88 1012.3
20260505040759 11 68 0.0 0.0 0.00 0.00 0.00 88 1012.2
20260505040249 11 68 0.0 0.0 0.00 0.00 0.00 88 1012.2
20260505035228 11 68 0.0 0.0 0.00 0.00 0.00 88 1012.3
20260505034718 11 68 0.0 0.0 0.00 0.00 0.00 88 1012.0
20260505034208 11 68 0.0 0.0 0.00 0.00 0.00 87 1012.3
20260505033658 11 68 0.0 0.0 0.00 0.00 0.00 87 1012.3
20260505032128 11 68 0.0 0.0 0.00 0.00 0.00 87 1012.2
20260505031618 11 68 0.0 0.0 0.00 0.00 0.00 87 1012.2
20260505031107 11 68 0.0 0.0 0.00 0.00 0.00 86 1012.3
20260505030557 11 68 0.0 0.0 0.00 0.00 0.00 86 1012.1
20260505025537 12 45 0.0 0.0 0.00 0.00 0.00 86 1012.0
20260505025027 12 68 0.0 0.0 0.00 0.00 0.00 86 1012.0
20260505024517 12 68 0.0 0.0 0.00 0.00 0.00 86 1012.1
20260505024007 11 68 0.0 0.0 0.00 0.00 0.00 85 1012.2
20260505023457 12 68 0.0 0.0 0.00 0.00 0.00 85 1012.1
20260505022947 12 68 0.0 0.0 0.00 0.00 0.00 85 1012.2
20260505022436 12 68 0.0 0.0 0.00 0.00 0.00 84 1012.3
20260505021927 12 68 0.0 0.0 0.00 0.00 0.00 84 1012.3
20260505021417 12 68 0.0 0.0 0.00 0.00 0.00 84 1012.3
20260505020907 12 68 0.0 0.0 0.00 0.00 0.00 83 1012.1
20260505020357 12 68 0.0 0.0 0.00 0.00 0.00 83 1012.4
20260505015336 12 68 0.0 0.0 0.00 0.00 0.00 83 1012.2
20260505014826 12 68 0.0 0.0 0.00 0.00 0.00 83 1012.2
20260505013805 12 68 0.0 0.0 0.00 0.00 0.00 83 1012.0
20260505013256 12 68 0.0 0.0 0.00 0.00 0.00 83 1012.0
20260505012746 12 45 0.0 0.0 0.00 0.00 0.00 82 1012.0
20260505011725 12 45 0.0 0.0 0.00 0.00 0.00 83 1011.9
20260505011215 12 45 0.0 0.0 0.00 0.00 0.00 82 1011.8
20260505010155 12 68 0.0 0.0 0.00 0.00 0.00 82 1011.4
20260505005645 13 68 0.0 0.0 0.00 0.00 0.00 82 1011.3
20260505005135 13 90 0.0 0.0 0.00 0.00 0.00 82 1011.4
20260505004625 12 90 0.0 0.0 0.00 0.00 0.00 81 1011.5
20260505004114 13 90 0.0 0.0 0.00 0.00 0.00 81 1011.5
20260505003604 13 90 0.0 0.0 0.00 0.00 0.00 81 1011.2
20260505003054 13 90 0.0 0.0 0.00 0.00 0.00 81 1011.4
20260505002543 12 68 0.0 0.0 0.00 0.00 0.00 81 1011.3